Regional Weather Roundup
Issued by NWS Northern Indiana

Home | Current Version | Previous Version | Graphics & Text | Print | Product List | Glossary On
Versions: 1 2 3 4 5 6 7 8 9 10 11 12 13 14 15 16 17 18 19 20 21 22 23 24 25 26 27 28 29 30 31 32 33 34 35 36 37 38 39 40 41 42 43 44 45 46 47 48 49 50
000
ASUS43 KIWX 011910
RWRIWX

KIWX WEATHER ROUNDUP
NATIONAL WEATHER SERVICE NORTHERN INDIANA
300 PM EDT WED JUL 01 2015

NOTE: "FAIR" INDICATES FEW OR NO CLOUDS BELOW 12,000 FEET WITH NO
SIGNIFICANT WEATHER AND/OR OBSTRUCTIONS TO VISIBILITY.

* THESE STATIONS ARE NOT UNDER NWS QUALITY CONTROL. THEY ALSO MAY NOT
  REPORT WEATHER SUCH AS PRECIPITATION OR FOG.

INZ001>027-012000-
NORTHERN INDIANA

CITY           SKY/WX    TMP DP  RH WIND       PRES   REMARKS
GARY*          PTSUNNY   63  54  72 NE10      29.98F
VALPARAISO     CLOUDY    68  55  63 N8        29.97S
MICHIGAN CITY* SUNNY     63  52  67 N10       29.98F
LAPORTE*       SUNNY     67  56  68 N12G17    29.97F
KNOX*          CLOUDY    68  55  64 N9        29.95S
SOUTH BEND     SUNNY     69  54  58 NW15      29.96F
ELKHART*       PTSUNNY   68  54  60 NW9       29.96F
GOSHEN         PTSUNNY   70  57  63 NW9       29.94F
MONTICELLO*    CLOUDY    72  62  71 E3        29.92F
LOGANSPORT*    CLOUDY    72  55  56 CALM      29.94F
ROCHESTER*     MOSUNNY   73  61  64 N5        29.94F
WARSAW*          N/A     70  57  64 NW8       29.94F
ANGOLA*        PTSUNNY   70  63  78 NW9       29.93F
FORT WAYNE     PTSUNNY   72  58  61 NW9       29.93F
HUNTINGTON*    MOSUNNY   74  60  62 NW5       29.93F
MARION*        MOSUNNY   73  60  63 NW3       29.93F

$$
INZ028>050-012000-
CENTRAL INDIANA

CITY           SKY/WX    TMP DP  RH WIND       PRES   REMARKS
LAFAYETTE      PTSUNNY   74  62  66 NE5       29.92F
KOKOMO*        PTSUNNY   75  63  64 NW7       29.92F
MUNCIE*        SUNNY     75  60  59 CALM      29.92F
INDIANAPOLIS   CLOUDY    77  60  55 W5        29.91F

$$
MIZ043>046-050>051-056>058-064>065-071>073-077>080-012000-
SOUTHWEST LOWER MICHIGAN

CITY           SKY/WX    TMP DP  RH WIND       PRES   REMARKS
BATTLE CREEK   SUNNY     71  51  49 W10       29.94F
BENTON HARBOR  PTSUNNY   61  50  67 NW7G18    29.98S
COLDWATER*     MOSUNNY   70  54  56 W10G17    29.93S
HILLSDALE*     MOSUNNY   70  56  61 NW8       29.93F
HOLLAND        PTSUNNY   62  50  64 NW13G21   29.98S
GRAND RAPIDS   PTSUNNY   68  51  54 NW10      29.93F
KALAMAZOO      SUNNY     70  50  49 NW7G21    29.94F
STURGIS*         N/A     70  55  60 NW7G16    29.93F
THREE RIVERS*  FAIR      70  53  56 NW10G16   29.94F

$$
OHZ001>008-015>018-024>025-012000-
NORTHWEST OHIO

CITY           SKY/WX    TMP DP  RH WIND       PRES   REMARKS
DEFIANCE       PTSUNNY   74  56  53 VRB6      29.92F
FINDLAY        MOSUNNY   73  58  59 W9        29.91F
TOLEDO EXPRESS MOSUNNY   72  56  57 W10       29.91F
TOLEDO METCALF MOSUNNY   73  57  57 VRB5      29.91F
LIMA           PTSUNNY   72  58  61 NW13      29.93F

$$
AND FOR LAKE MICHIGAN COASTAL AND OPEN LAKE BUOY OBSERVATIONS

STATION/POSITION TEMP    WIND        PRES    VSBY  WAVE
                 AIR SEA DIR/SP/G                  HT/PER
                 (F)     (DEG/KT/KT) (MB)    (MI)  (FT/S)
CALUMET HARBOR    58      50/  8/ 11   N/A
MICHIGAN CITY     58     350/ 10/ 14   N/A
BURNS HARBOR      58      30/ 10/ 12 1016.3S
SAINT JOSEPH      60     340/  9/ 12   N/A
4 MI NW BRIDGMAN  58 63                N/A           3/ 5
MICHIGAN CITY     58 65   40/  8/ 10   N/A           3/ 5

$$
&&



USA.gov is the U.S. government's official web portal to all federal, state and local government web resources and services.